START_TIME,STEP,MOV.,H8,t_acc.,H43,t_acc.,M25,t_acc.,H9,t_acc.
1979-08-02 00:00:28.350 ,0,0,0.,12.0,0.,12.0,0.,12.0,0.,12.0
1979-08-02 00:00:40.350 ,0,0,0.,12.0,0.,12.0,0.,12.0,0.,12.0
1979-08-02 00:00:52.350 ,1,0,0.,12.0,0.,12.0,0.,12.0,0.,12.0
1979-08-02 00:01:04.350 ,1,0,0.,12.0,0.,12.0,0.,12.0,0.,12.0
1979-08-02 00:01:16.350 ,1,0,0.,12.0,0.,12.0,0.,12.0,0.,12.0
1979-08-02 00:01:28.350 ,1,0,0.,12.0,0.,12.0,0.,12.0,0.,12.0
1979-08-02 00:01:40.350 ,2,0,0.,12.0,0.,12.0,0.,12.0,0.,12.0
1979-08-02 00:01:52.350 ,2,0,0.,12.0,0.,12.0,0.,12.0,0.,12.0
1979-08-02 00:02:04.350 ,2,0,0.,12.0,0.,12.0,0.,12.0,0.,12.0
1979-08-02 00:02:16.350 ,2,0,0.,12.0,0.,12.0,0.,12.0,0.,12.0
1979-08-02 00:02:28.350 ,3,0,0.,12.0,0.,12.0,0.,12.0,0.,12.0
1979-08-02 00:02:40.350 ,3,0,0.,12.0,0.,12.0,0.,12.0,0.,12.0
1979-08-02 00:02:52.350 ,3,0,0.,12.0,0.,12.0,0.,12.0,0.,12.0
1979-08-02 00:03:04.350 ,3,0,0.,12.0,0.,12.0,0.,12.0,0.,12.0
1979-08-02 00:03:16.350 ,4,0,0.,12.0,0.,12.0,0.,12.0,0.,12.0
1979-08-02 00:03:28.350 ,4,0,0.,12.0,0.,12.0,0.,12.0,0.,12.0
1979-08-02 00:03:40.350 ,4,0,0.,12.0,0.,12.0,0.,12.0,0.,12.0
1979-08-02 00:03:52.350 ,4,0,0.,12.0,0.,12.0,0.,12.0,0.,12.0
1979-08-02 00:04:04.350 ,5,0,0.,12.0,0.,12.0,0.,12.0,0.,12.0
1979-08-02 00:04:16.350 ,5,0,0.,12.0,0.,12.0,0.,12.0,0.,12.0
1979-08-02 00:04:28.350 ,5,0,0.,12.0,0.,12.0,0.,12.0,0.,12.0
1979-08-02 00:04:40.350 ,5,0,0.,12.0,0.,12.0,0.,12.0,0.,12.0
1979-08-02 00:04:52.350 ,6,0,0.,12.0,0.,12.0,0.,12.0,0.,12.0
1979-08-02 00:05:04.350 ,6,0,0.,12.0,0.,12.0,0.,12.0,0.,12.0
1979-08-02 00:05:16.350 ,6,0,0.,12.0,0.,12.0,0.,12.0,0.,12.0
1979-08-02 00:05:28.350 ,6,0,0.,12.0,0.,12.0,0.,12.0,0.,12.0
1979-08-02 00:05:40.350 ,7,0,0.,12.0,0.,12.0,0.,12.0,0.,12.0
1979-08-02 00:05:52.350 ,7,0,0.,12.0,0.,12.0,0.,12.0,0.,12.0
1979-08-02 00:06:04.350 ,7,0,0.,12.0,0.,12.0,0.,12.0,0.,12.0
1979-08-02 00:06:16.350 ,7,0,0.,12.0,0.,12.0,0.,12.0,0.,12.0
1979-08-02 00:06:28.350 ,7,0,0.,12.0,0.,12.0,0.,12.0,0.,12.0
1979-08-02 00:06:40.350 ,7,0,0.,12.0,0.,12.0,0.,12.0,0.,12.0
1979-08-02 00:06:52.350 ,7,0,0.,12.0,0.,12.0,0.,12.0,0.,12.0
1979-08-02 00:07:04.350 ,7,0,0.,12.0,0.,12.0,0.,12.0,0.,12.0
1979-08-02 00:07:16.350 ,6,0,0.,12.0,0.,12.0,0.,12.0,0.,12.0
1979-08-02 00:07:28.350 ,6,0,0.,12.0,0.,12.0,0.,12.0,0.,12.0
1979-08-02 00:07:40.350 ,6,0,0.,12.0,0.,12.0,0.,12.0,0.,12.0
1979-08-02 00:07:52.350 ,6,0,0.,12.0,0.,12.0,0.,12.0,0.,12.0
1979-08-02 00:08:04.350 ,5,0,0.,12.0,0.,12.0,0.,12.0,0.,12.0
1979-08-02 00:08:16.350 ,5,0,0.,12.0,0.,12.0,0.,12.0,0.,12.0
1979-08-02 00:08:28.350 ,5,0,0.,12.0,0.,12.0,0.,12.0,0.,12.0
1979-08-02 00:08:40.350 ,5,0,0.,12.0,0.,12.0,0.,12.0,0.,12.0
1979-08-02 00:08:52.350 ,4,0,0.,12.0,0.,12.0,0.,12.0,0.,12.0
1979-08-02 00:09:04.350 ,4,0,0.,12.0,0.,12.0,0.,12.0,0.,12.0
1979-08-02 00:09:16.350 ,4,0,0.,12.0,0.,12.0,0.,12.0,0.,12.0
1979-08-02 00:09:28.350 ,4,0,0.,12.0,0.,12.0,0.,12.0,0.,12.0
1979-08-02 00:09:40.350 ,3,0,0.,12.0,0.,12.0,0.,12.0,0.,12.0
1979-08-02 00:09:52.350 ,3,0,0.,12.0,0.,12.0,0.,12.0,0.,12.0
1979-08-02 00:10:04.350 ,3,0,0.,12.0,0.,12.0,0.,12.0,0.,12.0
1979-08-02 00:10:16.350 ,3,0,0.,12.0,0.,12.0,0.,12.0,0.,12.0
1979-08-02 00:10:28.350 ,2,0,0.,12.0,0.,12.0,0.,12.0,0.,12.0
1979-08-02 00:10:40.350 ,2,0,0.,12.0,0.,12.0,0.,12.0,0.,12.0
1979-08-02 00:10:52.350 ,2,0,0.,12.0,0.,12.0,0.,12.0,0.,12.0
1979-08-02 00:11:04.350 ,2,0,0.,12.0,0.,12.0,0.,12.0,0.,12.0
1979-08-02 00:11:16.350 ,1,0,0.,12.0,0.,12.0,0.,12.0,0.,12.0
1979-08-02 00:11:28.350 ,1,0,0.,12.0,0.,12.0,0.,12.0,0.,12.0
1979-08-02 00:11:40.350 ,1,0,0.,12.0,0.,12.0,0.,12.0,0.,12.0
1979-08-02 00:11:52.350 ,1,0,0.,12.0,0.,12.0,0.,12.0,0.,12.0
1979-08-02 00:12:04.350 ,0,0,0.,12.0,0.,12.0,0.,12.0,0.,12.0
1979-08-02 00:12:16.350 ,0,0,0.,12.0,0.,12.0,0.,12.0,0.,12.0
1979-08-02 00:12:28.350 ,0,0,0.,12.0,0.,12.0,0.,12.0,0.,12.0
1979-08-02 00:12:40.350 ,0,0,0.,12.0,0.,12.0,0.,12.0,0.,12.0
1979-08-02 00:12:52.350 ,0,0,0.,12.0,0.,12.0,0.,12.0,0.,12.0
1979-08-02 00:13:04.350 ,0,0,0.,12.0,0.,12.0,0.,12.0,0.,12.0
1979-08-02 00:13:16.350 ,0,0,0.,12.0,0.,12.0,0.,12.0,0.,12.0
1979-08-02 00:13:28.350 ,0,0,0.,12.0,0.,12.0,0.,12.0,0.,12.0
1979-08-02 00:13:40.350 ,1,0,0.,12.0,0.,12.0,0.,12.0,0.,12.0
1979-08-02 00:13:52.350 ,1,0,0.,12.0,0.,12.0,0.,12.0,0.,12.0
1979-08-02 00:14:04.350 ,1,0,0.,12.0,0.,12.0,0.,12.0,0.,12.0
1979-08-02 00:14:16.350 ,1,0,0.,12.0,0.,12.0,0.,12.0,0.,12.0
1979-08-02 00:14:28.350 ,2,0,0.,12.0,0.,12.0,0.,12.0,0.,12.0
1979-08-02 00:14:40.350 ,2,0,0.,12.0,0.,12.0,0.,12.0,0.,12.0
1979-08-02 00:14:52.350 ,2,0,0.,12.0,0.,12.0,0.,12.0,0.,12.0
1979-08-02 00:15:04.350 ,2,0,0.,12.0,0.,12.0,0.,12.0,0.,12.0
1979-08-02 00:15:16.350 ,3,0,0.,12.0,0.,12.0,0.,12.0,0.,12.0
1979-08-02 00:15:28.350 ,3,0,0.,12.0,0.,12.0,0.,12.0,0.,12.0
1979-08-02 00:15:40.350 ,3,0,0.,12.0,0.,12.0,0.,12.0,0.,12.0
1979-08-02 00:15:52.350 ,3,0,0.,12.0,0.,12.0,0.,12.0,0.,12.0
1979-08-02 00:16:04.350 ,4,0,0.,12.0,0.,12.0,0.,12.0,0.,12.0
1979-08-02 00:16:16.350 ,4,0,0.,12.0,0.,12.0,0.,12.0,0.,12.0
1979-08-02 00:16:28.350 ,4,0,0.,12.0,0.,12.0,0.,12.0,0.,12.0
1979-08-02 00:16:40.350 ,4,0,0.,12.0,0.,12.0,0.,12.0,0.,12.0
1979-08-02 00:16:52.350 ,5,0,0.,12.0,0.,12.0,0.,12.0,0.,12.0
1979-08-02 00:17:04.350 ,5,0,0.,12.0,0.,12.0,0.,12.0,0.,12.0
1979-08-02 00:17:16.350 ,5,0,0.,12.0,0.,12.0,0.,12.0,0.,12.0
1979-08-02 00:17:28.350 ,5,0,0.,12.0,0.,12.0,0.,12.0,0.,12.0
1979-08-02 00:17:40.350 ,6,0,0.,12.0,0.,12.0,0.,12.0,0.,12.0
1979-08-02 00:17:52.350 ,6,0,0.,12.0,0.,12.0,0.,12.0,0.,12.0
1979-08-02 00:18:04.350 ,6,0,0.,12.0,0.,12.0,0.,12.0,0.,12.0
1979-08-02 00:18:16.350 ,6,0,0.,12.0,0.,12.0,0.,12.0,0.,12.0
1979-08-02 00:18:28.350 ,7,0,0.,12.0,0.,12.0,0.,12.0,0.,12.0
1979-08-02 00:18:40.350 ,7,0,0.,12.0,0.,12.0,0.,12.0,0.,12.0
1979-08-02 00:18:52.350 ,7,0,0.,12.0,0.,12.0,0.,12.0,0.,12.0
1979-08-02 00:19:04.350 ,7,0,0.,12.0,0.,12.0,0.,12.0,0.,12.0
1979-08-02 00:19:16.350 ,3,1,0.,12.0,0.,12.0,0.,12.0,0.,12.0
1979-08-02 00:19:28.350 ,3,1,0.,12.0,0.,12.0,0.,12.0,0.,12.0
1979-08-02 00:19:40.350 ,0,1,0.,12.0,0.,12.0,0.,12.0,0.,12.0
1979-08-02 00:19:52.350 ,0,1,0.,12.0,0.,12.0,0.,12.0,0.,12.0
1979-08-02 00:20:04.350 ,4,1,0.,12.0,0.,12.0,0.,12.0,0.,12.0
1979-08-02 00:20:16.350 ,4,1,0.,12.0,0.,12.0,0.,12.0,0.,12.0
1979-08-02 00:20:28.350 ,7,1,0.,12.0,0.,12.0,0.,12.0,0.,12.0
1979-08-02 00:20:40.350 ,7,1,0.,12.0,0.,12.0,0.,12.0,0.,12.0
1979-08-02 00:20:52.350 ,3,1,0.,12.0,0.,12.0,0.,12.0,0.,12.0
1979-08-02 00:21:04.350 ,3,1,0.,12.0,0.,12.0,0.,12.0,0.,12.0
1979-08-02 00:21:16.350 ,0,1,0.,12.0,0.,12.0,0.,12.0,0.,12.0
1979-08-02 00:21:28.350 ,0,1,0.,12.0,0.,12.0,0.,12.0,0.,12.0
1979-08-02 00:21:40.350 ,4,1,0.,12.0,0.,12.0,0.,12.0,0.,12.0
1979-08-02 00:21:52.350 ,4,1,0.,12.0,0.,12.0,0.,12.0,0.,12.0
1979-08-02 00:22:04.350 ,7,1,0.,12.0,0.,12.0,0.,12.0,0.,12.0
1979-08-02 00:22:16.350 ,7,1,0.,12.0,0.,12.0,0.,12.0,0.,12.0
1979-08-02 00:22:28.350 ,3,1,0.,12.0,0.,12.0,0.,12.0,0.,12.0
1979-08-02 00:22:40.350 ,3,1,0.,12.0,0.,12.0,0.,12.0,0.,12.0
1979-08-02 00:22:52.350 ,0,1,0.,12.0,0.,12.0,0.,12.0,0.,12.0
1979-08-02 00:23:04.350 ,0,1,0.,12.0,0.,12.0,0.,12.0,0.,12.0
1979-08-02 00:23:16.350 ,4,1,0.,12.0,0.,12.0,0.,12.0,0.,12.0
1979-08-02 00:23:28.350 ,4,1,0.,12.0,0.,12.0,0.,12.0,0.,12.0
1979-08-02 00:23:40.350 ,7,1,0.,12.0,0.,12.0,0.,12.0,0.,12.0
1979-08-02 00:23:52.350 ,7,1,0.,12.0,0.,12.0,0.,12.0,0.,12.0
1979-08-02 00:24:04.350 ,3,1,0.,12.0,0.,12.0,0.,12.0,0.,12.0
1979-08-02 00:24:16.350 ,3,1,0.,12.0,0.,12.0,0.,12.0,0.,12.0
1979-08-02 00:24:28.350 ,0,1,0.,12.0,0.,12.0,0.,12.0,0.,12.0
1979-08-02 00:24:40.350 ,0,1,0.,12.0,0.,12.0,0.,12.0,0.,12.0
1979-08-02 00:24:52.350 ,4,1,0.,12.0,0.,12.0,0.,12.0,0.,12.0
1979-08-02 00:25:04.350 ,4,1,0.,12.0,0.,12.0,0.,12.0,0.,12.0
1979-08-02 00:25:16.350 ,7,1,0.,12.0,0.,12.0,0.,12.0,0.,12.0
1979-08-02 00:25:28.350 ,7,1,0.,12.0,0.,12.0,0.,12.0,0.,12.0
1979-08-02 00:25:40.350 ,3,1,0.,12.0,0.,12.0,0.,12.0,0.,12.0
1979-08-02 00:25:52.350 ,3,1,0.,12.0,0.,12.0,0.,12.0,0.,12.0
1979-08-02 00:26:04.350 ,0,1,0.,12.0,0.,12.0,0.,12.0,0.,12.0
1979-08-02 00:26:16.350 ,0,1,0.,12.0,0.,12.0,0.,12.0,0.,12.0
1979-08-02 00:26:28.350 ,4,1,0.,12.0,0.,12.0,0.,12.0,0.,12.0
1979-08-02 00:26:40.350 ,4,1,0.,12.0,0.,12.0,0.,12.0,0.,12.0
1979-08-02 00:26:52.350 ,7,1,0.,12.0,0.,12.0,0.,12.0,0.,12.0
1979-08-02 00:27:04.350 ,7,1,0.,12.0,0.,12.0,0.,12.0,0.,12.0
1979-08-02 00:27:16.350 ,3,1,0.,12.0,0.,12.0,0.,12.0,0.,12.0
1979-08-02 00:27:28.350 ,3,1,0.,12.0,0.,12.0,0.,12.0,0.,12.0
1979-08-02 00:27:40.350 ,0,1,0.,12.0,0.,12.0,0.,12.0,0.,12.0
1979-08-02 00:27:52.350 ,0,1,0.,12.0,0.,12.0,0.,12.0,0.,12.0
1979-08-02 00:28:04.350 ,4,1,0.,12.0,0.,12.0,0.,12.0,0.,12.0
1979-08-02 00:28:16.350 ,4,1,0.,12.0,0.,12.0,0.,12.0,0.,12.0
1979-08-02 00:28:28.350 ,7,1,0.,12.0,0.,12.0,0.,12.0,0.,12.0
1979-08-02 00:28:40.350 ,7,1,0.,12.0,0.,12.0,0.,12.0,0.,12.0
1979-08-02 00:28:52.350 ,3,1,0.,12.0,0.,12.0,0.,12.0,0.,12.0
1979-08-02 00:29:04.350 ,3,1,0.,12.0,0.,12.0,0.,12.0,0.,12.0
1979-08-02 00:29:16.350 ,0,1,0.,12.0,0.,12.0,0.,12.0,0.,12.0
1979-08-02 00:29:28.350 ,0,1,0.,12.0,0.,12.0,0.,12.0,0.,12.0
1979-08-02 00:29:40.350 ,0,0,0.,12.0,0.,12.0,0.,12.0,0.,12.0
1979-08-02 00:29:52.350 ,0,0,0.,12.0,0.,12.0,0.,12.0,0.,12.0
1979-08-02 00:30:04.350 ,0,0,0.,12.0,0.,12.0,0.,12.0,0.,12.0
1979-08-02 00:30:16.350 ,0,0,0.,12.0,0.,12.0,0.,12.0,0.,12.0
1979-08-02 00:30:28.350 ,5,0,0.,12.0,0.,12.0,0.,12.0,0.,12.0
1979-08-02 00:30:40.350 ,5,0,0.,12.0,0.,12.0,0.,12.0,0.,12.0
1979-08-02 00:30:52.350 ,5,0,0.,12.0,0.,12.0,0.,12.0,0.,12.0
1979-08-02 00:31:04.350 ,5,0,0.,12.0,0.,12.0,0.,12.0,0.,12.0
1979-08-02 00:31:16.350 ,4,0,0.,12.0,0.,12.0,0.,12.0,0.,12.0
1979-08-02 00:31:28.350 ,4,0,0.,12.0,0.,12.0,0.,12.0,0.,12.0
1979-08-02 00:31:40.350 ,4,0,0.,12.0,0.,12.0,0.,12.0,0.,12.0
1979-08-02 00:31:52.350 ,4,0,0.,12.0,0.,12.0,0.,12.0,0.,12.0
1979-08-02 00:32:04.350 ,3,0,0.,12.0,0.,12.0,0.,12.0,0.,12.0
1979-08-02 00:32:16.350 ,3,0,0.,12.0,0.,12.0,0.,12.0,0.,12.0
1979-08-02 00:32:28.350 ,3,0,0.,12.0,0.,12.0,0.,12.0,0.,12.0
1979-08-02 00:32:40.350 ,3,0,0.,12.0,0.,12.0,0.,12.0,0.,12.0
1979-08-02 00:32:52.350 ,2,0,0.,12.0,0.,12.0,0.,12.0,0.,12.0
1979-08-02 00:33:04.350 ,2,0,0.,12.0,0.,12.0,0.,12.0,0.,12.0
1979-08-02 00:33:16.350 ,2,0,0.,12.0,0.,12.0,0.,12.0,0.,12.0
1979-08-02 00:33:28.350 ,2,0,0.,12.0,0.,12.0,0.,12.0,0.,12.0
1979-08-02 00:33:40.350 ,1,0,0.,12.0,0.,12.0,0.,12.0,0.,12.0
1979-08-02 00:33:52.350 ,1,0,0.,12.0,0.,12.0,0.,12.0,0.,12.0
1979-08-02 00:34:04.350 ,1,0,0.,12.0,0.,12.0,0.,12.0,0.,12.0
1979-08-02 00:34:16.350 ,1,0,0.,12.0,0.,12.0,0.,12.0,0.,12.0
1979-08-02 00:34:28.350 ,0,0,0.,12.0,0.,12.0,0.,12.0,0.,12.0
1979-08-02 00:34:40.350 ,0,0,0.,12.0,0.,12.0,0.,12.0,0.,12.0
1979-08-02 00:34:52.350 ,0,0,0.,12.0,0.,12.0,0.,12.0,0.,12.0
1979-08-02 00:35:04.350 ,0,0,0.,12.0,0.,12.0,0.,12.0,0.,12.0
1979-08-02 00:35:16.350 ,0,0,0.,12.0,0.,12.0,0.,12.0,0.,12.0
1979-08-02 00:35:28.350 ,0,0,0.,12.0,0.,12.0,0.,12.0,0.,12.0
1979-08-02 00:35:40.350 ,0,0,0.,12.0,0.,12.0,0.,12.0,0.,12.0
1979-08-02 00:35:52.350 ,0,0,1.,12.0,0.,12.0,0.,12.0,0.,12.0
1979-08-02 00:36:04.350 ,1,0,0.,12.0,0.,12.0,0.,12.0,0.,12.0
1979-08-02 00:36:16.350 ,1,0,0.,12.0,0.,12.0,0.,12.0,0.,12.0
1979-08-02 00:36:28.350 ,1,0,0.,12.0,0.,12.0,0.,12.0,0.,12.0
1979-08-02 00:36:40.350 ,1,0,0.,12.0,0.,12.0,0.,12.0,0.,12.0
1979-08-02 00:36:52.350 ,2,0,0.,12.0,0.,12.0,0.,12.0,0.,12.0
1979-08-02 00:37:04.350 ,2,0,0.,12.0,0.,12.0,0.,12.0,0.,12.0
1979-08-02 00:37:16.350 ,2,0,0.,12.0,0.,12.0,0.,12.0,0.,12.0
1979-08-02 00:37:28.350 ,2,0,0.,12.0,0.,12.0,0.,12.0,0.,12.0
1979-08-02 00:38:28.350 ,4,0,0.,12.0,0.,12.0,0.,12.0,0.,12.0
1979-08-02 00:38:40.350 ,4,0,0.,12.0,0.,12.0,0.,12.0,0.,12.0
1979-08-02 00:38:52.350 ,4,0,0.,12.0,0.,12.0,0.,12.0,0.,12.0
1979-08-02 00:39:04.350 ,4,0,0.,12.0,0.,12.0,0.,12.0,0.,12.0
1979-08-02 00:39:16.350 ,5,0,0.,12.0,0.,12.0,0.,12.0,0.,12.0
1979-08-02 00:39:28.350 ,5,0,0.,12.0,0.,12.0,0.,12.0,0.,12.0
1979-08-02 00:39:40.350 ,5,0,0.,12.0,0.,12.0,0.,12.0,0.,12.0
1979-08-02 00:39:52.350 ,5,0,0.,12.0,0.,12.0,0.,12.0,0.,12.0
1979-08-02 00:40:04.350 ,6,0,0.,12.0,0.,12.0,0.,12.0,0.,12.0
1979-08-02 00:40:16.350 ,6,0,0.,12.0,0.,12.0,0.,12.0,0.,12.0
1979-08-02 00:40:28.350 ,6,0,0.,12.0,0.,12.0,0.,12.0,0.,12.0
1979-08-02 00:40:40.350 ,6,0,0.,12.0,0.,12.0,0.,12.0,0.,12.0
1979-08-02 00:40:52.350 ,7,0,0.,12.0,0.,12.0,0.,12.0,0.,12.0
1979-08-02 00:41:04.350 ,7,0,0.,12.0,0.,12.0,0.,12.0,0.,12.0
1979-08-02 00:41:16.350 ,7,0,0.,12.0,0.,12.0,0.,12.0,0.,12.0
1979-08-02 00:41:28.350 ,7,0,0.,12.0,0.,12.0,0.,12.0,0.,12.0
1979-08-02 00:41:40.350 ,7,0,0.,12.0,0.,12.0,0.,12.0,0.,12.0
1979-08-02 00:41:52.350 ,7,0,0.,12.0,0.,12.0,0.,12.0,0.,12.0
1979-08-02 00:42:04.350 ,7,0,0.,12.0,0.,12.0,0.,12.0,0.,12.0
1979-08-02 00:42:16.350 ,7,0,0.,12.0,0.,12.0,0.,12.0,0.,12.0
1979-08-02 00:43:16.350 ,5,0,0.,12.0,0.,12.0,0.,12.0,0.,12.0
1979-08-02 00:43:28.350 ,5,0,0.,12.0,0.,12.0,0.,12.0,0.,12.0
1979-08-02 00:43:40.350 ,5,0,0.,12.0,0.,12.0,0.,12.0,0.,12.0
1979-08-02 00:43:52.350 ,5,0,0.,12.0,0.,12.0,0.,12.0,0.,12.0
1979-08-02 00:44:04.350 ,4,0,0.,12.0,0.,12.0,0.,12.0,0.,12.0
1979-08-02 00:44:16.350 ,4,0,0.,12.0,0.,12.0,0.,12.0,0.,12.0
1979-08-02 00:44:28.350 ,4,0,0.,12.0,0.,12.0,0.,12.0,0.,12.0
1979-08-02 00:44:40.350 ,4,0,0.,12.0,0.,12.0,0.,12.0,0.,12.0
1979-08-02 00:44:52.350 ,3,0,0.,12.0,0.,12.0,0.,12.0,0.,12.0
1979-08-02 00:45:04.350 ,3,0,0.,12.0,0.,12.0,0.,12.0,0.,12.0
1979-08-02 00:45:16.350 ,3,0,0.,12.0,0.,12.0,0.,12.0,0.,12.0
1979-08-02 00:45:28.350 ,3,0,0.,12.0,0.,12.0,0.,12.0,0.,12.0
1979-08-02 00:45:40.350 ,2,0,0.,12.0,0.,12.0,0.,12.0,0.,12.0
1979-08-02 00:45:52.350 ,2,0,0.,12.0,0.,12.0,0.,12.0,0.,12.0
1979-08-02 00:46:04.350 ,2,0,0.,12.0,0.,12.0,0.,12.0,0.,12.0
1979-08-02 00:46:16.350 ,2,0,0.,12.0,0.,12.0,0.,12.0,0.,12.0
1979-08-02 00:46:28.350 ,1,0,0.,12.0,0.,12.0,0.,12.0,0.,12.0
1979-08-02 00:46:40.350 ,1,0,0.,12.0,0.,12.0,0.,12.0,0.,12.0
1979-08-02 00:46:52.350 ,1,0,0.,12.0,0.,12.0,0.,12.0,0.,12.0
1979-08-02 00:47:04.350 ,1,0,0.,12.0,0.,12.0,0.,12.0,0.,12.0
1979-08-02 00:47:16.350 ,0,0,0.,12.0,0.,12.0,0.,12.0,0.,12.0
1979-08-02 00:47:28.350 ,0,0,0.,12.0,0.,12.0,0.,12.0,0.,12.0
1979-08-02 00:47:40.350 ,0,0,0.,12.0,0.,12.0,0.,12.0,0.,12.0
1979-08-02 00:47:52.350 ,0,0,1.,12.0,0.,12.0,0.,12.0,0.,12.0
1979-08-02 00:48:04.350 ,0,0,1.,12.0,0.,12.0,0.,12.0,0.,12.0
1979-08-02 00:48:16.350 ,0,0,0.,12.0,0.,12.0,0.,12.0,0.,12.0
1979-08-02 00:48:28.350 ,0,0,0.,12.0,0.,12.0,0.,12.0,0.,12.0
1979-08-02 00:48:40.350 ,0,0,0.,12.0,0.,12.0,0.,12.0,0.,12.0
1979-08-02 00:48:52.350 ,1,0,0.,12.0,0.,12.0,0.,12.0,0.,12.0
1979-08-02 00:49:04.350 ,1,0,0.,12.0,0.,12.0,0.,12.0,0.,12.0
1979-08-02 00:49:16.350 ,1,0,0.,12.0,0.,12.0,0.,12.0,0.,12.0
1979-08-02 00:49:28.350 ,1,0,0.,12.0,0.,12.0,0.,12.0,0.,12.0
1979-08-02 00:49:40.350 ,2,0,0.,12.0,0.,12.0,0.,12.0,0.,12.0
1979-08-02 00:49:52.350 ,2,0,0.,12.0,0.,12.0,0.,12.0,0.,12.0
1979-08-02 00:50:04.350 ,2,0,0.,12.0,0.,12.0,0.,12.0,0.,12.0
1979-08-02 00:50:16.350 ,2,0,0.,12.0,0.,12.0,0.,12.0,0.,12.0
1979-08-02 00:50:28.350 ,3,0,0.,12.0,0.,12.0,0.,12.0,0.,12.0
1979-08-02 00:50:40.350 ,3,0,0.,12.0,0.,12.0,0.,12.0,0.,12.0
1979-08-02 00:50:52.350 ,3,0,0.,12.0,0.,12.0,0.,12.0,0.,12.0
1979-08-02 00:51:04.350 ,3,0,0.,12.0,0.,12.0,0.,12.0,0.,12.0
1979-08-02 00:51:16.350 ,4,0,0.,12.0,0.,12.0,0.,12.0,0.,12.0
1979-08-02 00:51:28.350 ,4,0,0.,12.0,0.,12.0,0.,12.0,0.,12.0
1979-08-02 00:51:40.350 ,4,0,0.,12.0,0.,12.0,0.,12.0,0.,12.0
1979-08-02 00:51:52.350 ,4,0,0.,12.0,0.,12.0,0.,12.0,0.,12.0
1979-08-02 00:52:04.350 ,5,0,0.,12.0,0.,12.0,0.,12.0,0.,12.0
1979-08-02 00:52:16.350 ,5,0,0.,12.0,0.,12.0,0.,12.0,0.,12.0
1979-08-02 00:52:28.350 ,5,0,0.,12.0,0.,12.0,0.,12.0,0.,12.0
1979-08-02 00:52:40.350 ,5,0,0.,12.0,0.,12.0,0.,12.0,0.,12.0
1979-08-02 00:52:52.350 ,6,0,0.,12.0,0.,12.0,0.,12.0,0.,12.0
1979-08-02 00:53:04.350 ,6,0,0.,12.0,0.,12.0,0.,12.0,0.,12.0
1979-08-02 00:53:16.350 ,6,0,0.,12.0,0.,12.0,0.,12.0,0.,12.0
1979-08-02 00:53:28.350 ,6,0,0.,12.0,0.,12.0,0.,12.0,0.,12.0
1979-08-02 00:53:40.350 ,7,0,0.,12.0,0.,12.0,0.,12.0,0.,12.0
1979-08-02 00:53:52.350 ,7,0,0.,12.0,0.,12.0,0.,12.0,0.,12.0
1979-08-02 00:54:04.350 ,7,0,0.,12.0,0.,12.0,0.,12.0,0.,12.0
1979-08-02 00:54:16.350 ,7,0,0.,12.0,0.,12.0,0.,12.0,0.,12.0
1979-08-02 00:54:28.350 ,7,0,0.,12.0,0.,12.0,0.,12.0,0.,12.0
1979-08-02 00:54:40.350 ,7,0,0.,12.0,0.,12.0,0.,12.0,0.,12.0
1979-08-02 00:54:52.350 ,7,0,0.,12.0,0.,12.0,0.,12.0,0.,12.0
1979-08-02 00:55:04.350 ,7,0,0.,12.0,0.,12.0,0.,12.0,0.,12.0
1979-08-02 00:55:16.350 ,6,0,0.,12.0,0.,12.0,0.,12.0,0.,12.0
1979-08-02 00:55:28.350 ,6,0,0.,12.0,0.,12.0,0.,12.0,0.,12.0
1979-08-02 00:55:40.350 ,6,0,0.,12.0,0.,12.0,0.,12.0,0.,12.0
1979-08-02 00:55:52.350 ,6,0,0.,12.0,0.,12.0,0.,12.0,0.,12.0
1979-08-02 00:56:04.350 ,5,0,0.,12.0,0.,12.0,0.,12.0,0.,12.0
1979-08-02 00:56:16.350 ,5,0,0.,12.0,0.,12.0,0.,12.0,0.,12.0
1979-08-02 00:56:28.350 ,5,0,0.,12.0,0.,12.0,0.,12.0,0.,12.0
1979-08-02 00:56:40.350 ,5,0,0.,12.0,0.,12.0,0.,12.0,0.,12.0
1979-08-02 00:56:52.350 ,4,0,0.,12.0,0.,12.0,0.,12.0,0.,12.0
1979-08-02 00:57:04.350 ,4,0,0.,12.0,0.,12.0,0.,12.0,0.,12.0
1979-08-02 00:57:16.350 ,4,0,0.,12.0,0.,12.0,0.,12.0,0.,12.0
1979-08-02 00:57:28.350 ,4,0,0.,12.0,0.,12.0,0.,12.0,0.,12.0
1979-08-02 00:57:40.350 ,3,0,0.,12.0,0.,12.0,0.,12.0,0.,12.0
1979-08-02 00:57:52.350 ,3,0,0.,12.0,0.,12.0,0.,12.0,0.,12.0
1979-08-02 00:58:04.350 ,3,0,0.,12.0,0.,12.0,0.,12.0,0.,12.0
1979-08-02 00:58:16.350 ,3,0,0.,12.0,0.,12.0,0.,12.0,0.,12.0
1979-08-02 00:58:28.350 ,2,0,0.,12.0,0.,12.0,0.,12.0,0.,12.0
1979-08-02 00:58:40.350 ,2,0,0.,12.0,0.,12.0,0.,12.0,0.,12.0
1979-08-02 00:58:52.350 ,2,0,0.,12.0,0.,12.0,0.,12.0,0.,12.0
1979-08-02 00:59:04.350 ,2,0,0.,12.0,0.,12.0,0.,12.0,0.,12.0
1979-08-02 00:59:16.350 ,1,0,0.,12.0,0.,12.0,0.,12.0,0.,12.0
1979-08-02 00:59:28.350 ,1,0,0.,12.0,0.,12.0,0.,12.0,0.,12.0
1979-08-02 00:59:40.350 ,1,0,0.,12.0,0.,12.0,0.,12.0,0.,12.0
1979-08-02 00:59:52.350 ,1,0,0.,12.0,0.,12.0,0.,12.0,0.,12.0
1979-08-02 01:00:04.350 ,0,0,0.,12.0,0.,12.0,0.,12.0,0.,12.0
1979-08-02 01:00:16.350 ,0,0,0.,12.0,0.,12.0,0.,12.0,0.,12.0
1979-08-02 01:00:28.350 ,0,0,0.,12.0,0.,12.0,0.,12.0,0.,12.0
1979-08-02 01:00:40.350 ,0,0,0.,12.0,0.,12.0,0.,12.0,0.,12.0
1979-08-02 01:00:52.350 ,0,0,0.,12.0,0.,12.0,0.,12.0,0.,12.0
1979-08-02 01:01:04.350 ,0,0,0.,12.0,0.,12.0,0.,12.0,0.,12.0
1979-08-02 01:01:16.350 ,0,0,0.,12.0,0.,12.0,0.,12.0,0.,12.0
1979-08-02 01:01:28.350 ,0,0,0.,12.0,0.,12.0,0.,12.0,0.,12.0
1979-08-02 01:01:40.350 ,1,0,0.,12.0,0.,12.0,0.,12.0,0.,12.0
1979-08-02 01:01:52.350 ,1,0,0.,12.0,0.,12.0,0.,12.0,0.,12.0
1979-08-02 01:02:04.350 ,1,0,0.,12.0,0.,12.0,0.,12.0,0.,12.0
1979-08-02 01:02:16.350 ,1,0,0.,12.0,0.,12.0,0.,12.0,0.,12.0
1979-08-02 01:02:28.350 ,2,0,0.,12.0,0.,12.0,0.,12.0,0.,12.0
1979-08-02 01:02:40.350 ,2,0,0.,12.0,0.,12.0,0.,12.0,0.,12.0
1979-08-02 01:02:52.350 ,2,0,0.,12.0,0.,12.0,0.,12.0,0.,12.0
1979-08-02 01:03:04.350 ,2,0,0.,12.0,0.,12.0,0.,12.0,0.,12.0
1979-08-02 01:03:16.350 ,3,0,0.,12.0,0.,12.0,0.,12.0,0.,12.0
1979-08-02 01:03:28.350 ,3,0,0.,12.0,0.,12.0,0.,12.0,0.,12.0
1979-08-02 01:03:40.350 ,3,0,0.,12.0,0.,12.0,0.,12.0,0.,12.0
1979-08-02 01:03:52.350 ,3,0,0.,12.0,0.,12.0,0.,12.0,0.,12.0
1979-08-02 01:04:04.350 ,4,0,0.,12.0,0.,12.0,0.,12.0,0.,12.0
1979-08-02 01:04:16.350 ,4,0,0.,12.0,0.,12.0,0.,12.0,0.,12.0
1979-08-02 01:04:28.350 ,4,0,0.,12.0,0.,12.0,0.,12.0,0.,12.0
1979-08-02 01:04:40.350 ,4,0,0.,12.0,0.,12.0,0.,12.0,0.,12.0
1979-08-02 01:04:52.350 ,5,0,0.,12.0,0.,12.0,0.,12.0,0.,12.0
1979-08-02 01:05:04.350 ,5,0,0.,12.0,0.,12.0,0.,12.0,0.,12.0
1979-08-02 01:05:16.350 ,5,0,0.,12.0,0.,12.0,0.,12.0,0.,12.0
1979-08-02 01:05:28.350 ,5,0,0.,12.0,0.,12.0,0.,12.0,0.,12.0
1979-08-02 01:05:40.350 ,6,0,0.,12.0,0.,12.0,0.,12.0,0.,12.0
1979-08-02 01:05:52.350 ,6,0,0.,12.0,0.,12.0,0.,12.0,0.,12.0
1979-08-02 01:06:04.350 ,6,0,0.,12.0,0.,12.0,0.,12.0,0.,12.0
1979-08-02 01:06:16.350 ,6,0,0.,12.0,0.,12.0,0.,12.0,0.,12.0
1979-08-02 01:06:28.350 ,7,0,0.,12.0,0.,12.0,0.,12.0,0.,12.0
1979-08-02 01:06:40.350 ,7,0,0.,12.0,0.,12.0,0.,12.0,0.,12.0
1979-08-02 01:06:52.350 ,7,0,0.,12.0,0.,12.0,0.,12.0,0.,12.0
1979-08-02 01:07:04.350 ,7,0,0.,12.0,0.,12.0,0.,12.0,0.,12.0
1979-08-02 01:07:16.350 ,3,1,0.,12.0,0.,12.0,0.,12.0,0.,12.0
1979-08-02 01:07:28.350 ,3,1,0.,12.0,0.,12.0,0.,12.0,0.,12.0
1979-08-02 01:07:40.350 ,0,1,0.,12.0,0.,12.0,0.,12.0,0.,12.0
1979-08-02 01:07:52.350 ,0,1,0.,12.0,0.,12.0,0.,12.0,0.,12.0
1979-08-02 01:08:04.350 ,4,1,0.,12.0,0.,12.0,0.,12.0,0.,12.0
1979-08-02 01:08:16.350 ,4,1,0.,12.0,0.,12.0,0.,12.0,0.,12.0
1979-08-02 01:08:28.350 ,7,1,0.,12.0,0.,12.0,0.,12.0,0.,12.0
1979-08-02 01:08:40.350 ,7,1,0.,12.0,0.,12.0,0.,12.0,0.,12.0
1979-08-02 01:08:52.350 ,3,1,0.,12.0,0.,12.0,0.,12.0,0.,12.0
1979-08-02 01:09:04.350 ,3,1,0.,12.0,0.,12.0,0.,12.0,0.,12.0
1979-08-02 01:09:16.350 ,0,1,0.,12.0,0.,12.0,0.,12.0,0.,12.0
1979-08-02 01:09:28.350 ,0,1,0.,12.0,0.,12.0,0.,12.0,0.,12.0
1979-08-02 01:09:40.350 ,4,1,0.,12.0,0.,12.0,0.,12.0,0.,12.0
1979-08-02 01:09:52.350 ,4,1,0.,12.0,0.,12.0,0.,12.0,0.,12.0
1979-08-02 01:10:04.350 ,7,1,0.,12.0,0.,12.0,0.,12.0,0.,12.0
1979-08-02 01:10:16.350 ,7,1,0.,12.0,0.,12.0,0.,12.0,0.,12.0
1979-08-02 01:10:28.350 ,3,1,0.,12.0,0.,12.0,0.,12.0,0.,12.0
1979-08-02 01:10:40.350 ,3,1,0.,12.0,0.,12.0,0.,12.0,0.,12.0
1979-08-02 01:10:52.350 ,0,1,0.,12.0,0.,12.0,0.,12.0,0.,12.0
1979-08-02 01:11:04.350 ,0,1,0.,12.0,0.,12.0,0.,12.0,0.,12.0
1979-08-02 01:11:16.350 ,4,1,0.,12.0,0.,12.0,0.,12.0,0.,12.0
1979-08-02 01:11:28.350 ,4,1,0.,12.0,0.,12.0,0.,12.0,0.,12.0
1979-08-02 01:11:40.350 ,7,1,0.,12.0,0.,12.0,0.,12.0,0.,12.0
1979-08-02 01:11:52.350 ,7,1,0.,12.0,0.,12.0,0.,12.0,0.,12.0
1979-08-02 01:12:04.350 ,3,1,0.,12.0,0.,12.0,0.,12.0,0.,12.0
1979-08-02 01:12:16.350 ,3,1,0.,12.0,0.,12.0,0.,12.0,0.,12.0
1979-08-02 01:12:28.350 ,0,1,0.,12.0,0.,12.0,0.,12.0,0.,12.0
1979-08-02 01:12:40.350 ,0,1,0.,12.0,0.,12.0,0.,12.0,0.,12.0
1979-08-02 01:12:52.350 ,4,1,0.,12.0,0.,12.0,0.,12.0,0.,12.0
1979-08-02 01:13:04.350 ,4,1,0.,12.0,0.,12.0,0.,12.0,0.,12.0
1979-08-02 01:13:16.350 ,7,1,0.,12.0,0.,12.0,0.,12.0,0.,12.0
1979-08-02 01:13:28.350 ,7,1,0.,12.0,0.,12.0,0.,12.0,0.,12.0
1979-08-02 01:13:40.350 ,3,1,0.,12.0,0.,12.0,0.,12.0,0.,12.0
1979-08-02 01:13:52.350 ,3,1,0.,12.0,0.,12.0,0.,12.0,0.,12.0
1979-08-02 01:14:04.350 ,0,1,0.,12.0,0.,12.0,0.,12.0,0.,12.0
1979-08-02 01:14:16.350 ,0,1,0.,12.0,0.,12.0,0.,12.0,0.,12.0
1979-08-02 01:14:28.350 ,4,1,0.,12.0,0.,12.0,0.,12.0,0.,12.0
1979-08-02 01:14:40.350 ,4,1,0.,12.0,0.,12.0,0.,12.0,0.,12.0
1979-08-02 01:14:52.350 ,7,1,0.,12.0,0.,12.0,0.,12.0,0.,12.0
1979-08-02 01:15:04.350 ,7,1,0.,12.0,0.,12.0,0.,12.0,0.,12.0
1979-08-02 01:15:16.350 ,3,1,0.,12.0,0.,12.0,0.,12.0,0.,12.0
1979-08-02 01:15:28.350 ,3,1,0.,12.0,0.,12.0,0.,12.0,0.,12.0
1979-08-02 01:15:40.350 ,0,1,0.,12.0,0.,12.0,0.,12.0,0.,12.0
1979-08-02 01:15:52.350 ,0,1,0.,12.0,0.,12.0,0.,12.0,0.,12.0
1979-08-02 01:16:04.350 ,4,1,0.,12.0,0.,12.0,0.,12.0,0.,12.0
1979-08-02 01:16:16.350 ,4,1,0.,12.0,0.,12.0,0.,12.0,0.,12.0
1979-08-02 01:16:28.350 ,7,1,0.,12.0,0.,12.0,0.,12.0,0.,12.0
1979-08-02 01:16:40.350 ,7,1,0.,12.0,0.,12.0,0.,12.0,0.,12.0
1979-08-02 01:16:52.350 ,3,1,0.,12.0,0.,12.0,0.,12.0,0.,12.0
1979-08-02 01:17:04.350 ,3,1,0.,12.0,0.,12.0,0.,12.0,0.,12.0
1979-08-02 01:17:16.350 ,0,1,0.,12.0,0.,12.0,0.,12.0,0.,12.0
1979-08-02 01:17:28.350 ,0,1,0.,12.0,0.,12.0,0.,12.0,0.,12.0
1979-08-02 01:17:40.350 ,0,0,0.,12.0,0.,12.0,0.,12.0,0.,12.0
1979-08-02 01:17:52.350 ,0,0,0.,12.0,0.,12.0,0.,12.0,0.,12.0
1979-08-02 01:18:04.350 ,0,0,0.,12.0,0.,12.0,0.,12.0,0.,12.0
1979-08-02 01:18:16.350 ,0,0,0.,12.0,0.,12.0,0.,12.0,0.,12.0
1979-08-02 01:18:28.350 ,5,0,0.,12.0,0.,12.0,0.,12.0,0.,12.0
1979-08-02 01:18:40.350 ,5,0,0.,12.0,0.,12.0,0.,12.0,0.,12.0
1979-08-02 01:18:52.350 ,5,0,0.,12.0,0.,12.0,0.,12.0,0.,12.0
1979-08-02 01:19:04.350 ,5,0,0.,12.0,0.,12.0,0.,12.0,0.,12.0